Location: Banff
(51.1667°N, 115.5667°W)
Time: 11:46:05
(UTC+00:00)

A-11 Canister half - All Passes

Search period start: 30 November 2020 00:00
Search period end: 10 December 2020 00:00
Orbit: 1525 x 1684 km, 47.3° (Epoch: 29 November)

Date Brightness Start Highest point End Pass type
(mag) Time Alt. Az. Time Alt. Az. Time Alt. Az.
30 Nov - 12:21:34 10° SSW 12:30:14 33° SE 12:38:46 10° E visible
30 Nov - 14:24:14 10° WSW 14:34:09 63° SSE 14:43:52 10° E visible
30 Nov - 16:28:51 10° W 16:38:51 71° S 16:48:33 10° ESE daylight
30 Nov - 18:33:52 10° W 18:43:13 48° SSW 18:52:15 10° SE daylight
30 Nov - 20:40:10 10° W 20:46:20 19° SW 20:52:24 10° S daylight
01 Dec - 12:00:06 10° SSW 12:08:37 32° SE 12:17:04 10° E visible
01 Dec - 14:02:35 10° WSW 14:12:30 62° SSE 14:22:13 10° E visible
01 Dec - 16:07:10 10° W 16:17:12 71° S 16:26:55 10° ESE daylight
01 Dec - 18:12:10 10° W 18:21:36 49° SSW 18:30:43 10° SE daylight
01 Dec - 20:18:19 10° W 20:24:47 20° SW 20:31:08 10° S daylight
02 Dec - 11:38:37 10° SSW 11:47:01 31° SE 11:55:20 10° E visible
02 Dec - 13:40:57 10° SW 13:50:51 60° SSE 14:00:34 10° E visible
02 Dec - 15:45:29 10° W 15:55:32 72° S 16:05:17 10° ESE daylight
02 Dec - 17:50:29 10° W 17:59:59 51° SSW 18:09:10 10° SE daylight
02 Dec - 19:56:29 10° W 20:03:14 21° SW 20:09:51 10° S daylight
03 Dec - 11:17:10 10° SSW 11:25:25 30° SE 11:33:37 10° E visible
03 Dec - 13:19:19 10° SW 13:29:12 59° SSE 13:38:54 10° E visible
03 Dec - 15:23:48 10° W 15:33:52 72° S 15:43:39 10° ESE daylight
03 Dec - 17:28:47 10° W 17:38:21 52° SSW 17:47:37 10° SE daylight
03 Dec - 19:34:40 10° W 19:41:40 23° SW 19:48:33 10° S daylight
04 Dec - 10:55:42 10° S 11:03:49 28° SE 11:11:53 10° E visible
04 Dec - 12:57:41 10° SW 13:07:32 58° SSE 13:17:15 10° E visible
04 Dec - 15:02:07 10° W 15:12:12 72° S 15:22:01 10° E daylight
04 Dec - 17:07:05 10° W 17:16:43 54° SSW 17:26:03 10° SE daylight
04 Dec - 19:12:53 10° W 19:20:07 24° SW 19:27:13 10° S daylight
05 Dec - 10:34:17 10° S 10:42:14 27° SE 10:50:09 10° E visible
05 Dec - 12:36:04 10° SW 12:45:53 57° SSE 12:55:36 10° E visible
05 Dec - 14:40:26 10° W 14:50:32 72° S 15:00:22 10° E visible
05 Dec - 16:45:24 10° W 16:55:05 55° SSW 17:04:29 10° SE daylight
05 Dec - 18:51:06 10° W 18:58:33 25° SW 19:05:51 10° S daylight
06 Dec - 10:12:52 10° S 10:20:38 26° SE 10:28:24 10° E visible
06 Dec - 12:14:27 10° SW 12:24:14 56° SSE 12:33:55 10° E visible
06 Dec - 14:18:45 10° W 14:28:51 72° S 14:38:43 10° E visible
06 Dec - 16:23:42 10° W 16:33:27 56° SSW 16:42:54 10° SE daylight
06 Dec - 18:29:19 10° W 18:36:59 26° SW 18:44:29 10° S daylight
07 Dec - 09:51:28 10° S 09:59:03 25° SE 10:06:38 10° E visible
07 Dec - 11:52:50 10° SW 12:02:35 54° SSE 12:12:16 10° E visible
07 Dec - 13:57:04 10° W 14:07:11 72° S 14:17:05 10° E visible
07 Dec - 16:02:01 10° W 16:11:49 58° SSW 16:21:19 10° SE daylight
07 Dec - 18:07:33 10° W 18:15:25 28° SW 18:23:06 10° S daylight
08 Dec - 09:30:05 10° S 09:37:28 24° SE 09:44:52 10° E visible
08 Dec - 11:31:14 10° SW 11:40:57 53° SSE 11:50:36 10° E visible
08 Dec - 13:35:24 10° WSW 13:45:31 72° S 13:55:26 10° E visible
08 Dec - 15:40:20 10° W 15:50:10 59° SSW 15:59:44 10° SE daylight
08 Dec - 17:45:47 10° W 17:53:50 29° SW 18:01:41 10° S daylight
09 Dec - 09:08:43 10° S 09:15:53 23° SE 09:23:04 10° E visible
09 Dec - 11:09:38 10° SW 11:19:18 52° SSE 11:28:55 10° E visible
09 Dec - 13:13:43 10° WSW 13:23:50 72° S 13:33:46 10° E visible
09 Dec - 15:18:39 10° W 15:28:31 60° SSW 15:38:08 10° SE daylight
09 Dec - 17:24:02 10° W 17:32:15 30° SW 17:40:16 10° SSE daylight
